When you browse on this site, cookies collect data to enhance your experience and personalize the content and advertising you see.
Visit our Privacy Policy to learn more. By continuing to use the site, you agree to this use of cookies and data.
  • In Österreich
  • Länderverzeichnis
  • Für 7 Tage
  • Wassertemperatur
  • Wetterkarte
  • News
  • Widgets
  • user-avatar
    Anmelden

    Stündliche Wetter Zasadky

    Heute, 18 August, Sonntag

    Zeit Temperatur Niederschläge Wind Luftdruck Luftfeuchtigkeit
    00:00 +15°C° 0 mm 1 m/S 732 mmHg 82%
    01:00 +15°C° 0 mm 1 m/S 732 mmHg 83%
    02:00 +15°C° 0 mm 1 m/S 731 mmHg 83%
    03:00 +15°C° 0 mm 2 m/S 731 mmHg 83%
    04:00 +15°C° 0 mm 2 m/S 731 mmHg 83%
    05:00 +15°C° 0 mm 2 m/S 731 mmHg 83%
    06:00 +16°C° 0 mm 2 m/S 731 mmHg 78%
    07:00 +18°C° 0 mm 2 m/S 732 mmHg 74%
    08:00 +20°C° 0 mm 2 m/S 732 mmHg 70%
    09:00 +21°C° 0 mm 3 m/S 732 mmHg 64%
    10:00 +24°C° 0 mm 3 m/S 732 mmHg 59%
    11:00 +25°C° 0 mm 3 m/S 732 mmHg 53%
    12:00 +26°C° 0 mm 3 m/S 732 mmHg 51%
    13:00 +26°C° 0 mm 3 m/S 732 mmHg 49%
    14:00 +27°C° 0 mm 3 m/S 732 mmHg 47%
    15:00 +27°C° 0 mm 3 m/S 732 mmHg 51%
    16:00 +26°C° 0 mm 4 m/S 732 mmHg 56%
    17:00 +26°C° 0 mm 4 m/S 732 mmHg 60%
    18:00 +24°C° 0 mm 3 m/S 732 mmHg 63%
    19:00 +21°C° 0 mm 3 m/S 732 mmHg 67%
    20:00 +20°C° 0 mm 3 m/S 732 mmHg 71%
    21:00 +20°C° 0 mm 3 m/S 732 mmHg 69%
    22:00 +19°C° 0 mm 3 m/S 732 mmHg 68%
    23:00 +19°C° 0 mm 3 m/S 732 mmHg 66%

    Morgen, 19 August, Montag

    Zeit Temperatur Niederschläge Wind Luftdruck Luftfeuchtigkeit
    00:00 +19°C° 0 mm 3 m/S 732 mmHg 67%
    01:00 +19°C° 0 mm 3 m/S 732 mmHg 67%
    02:00 +18°C° 0 mm 3 m/S 732 mmHg 67%
    03:00 +18°C° 0 mm 3 m/S 732 mmHg 68%
    04:00 +18°C° 0 mm 2 m/S 732 mmHg 69%
    05:00 +17°C° 0 mm 2 m/S 732 mmHg 70%
    06:00 +19°C° 0 mm 2 m/S 733 mmHg 68%
    07:00 +20°C° 0 mm 2 m/S 733 mmHg 67%
    08:00 +21°C° 0 mm 3 m/S 733 mmHg 66%
    09:00 +25°C° 0 mm 2 m/S 733 mmHg 60%
    10:00 +27°C° 0 mm 2 m/S 734 mmHg 55%
    11:00 +29°C° 0 mm 2 m/S 734 mmHg 50%
    12:00 +29°C° 0 mm 2 m/S 734 mmHg 48%
    13:00 +30°C° 0 mm 2 m/S 734 mmHg 45%
    14:00 +31°C° 0 mm 2 m/S 734 mmHg 43%
    15:00 +31°C° 0 mm 2 m/S 734 mmHg 46%
    16:00 +31°C° 0 mm 2 m/S 734 mmHg 49%
    17:00 +30°C° 0 mm 1 m/S 734 mmHg 53%
    18:00 +28°C° 0 mm 1 m/S 734 mmHg 59%
    19:00 +25°C° 0 mm 1 m/S 734 mmHg 66%
    20:00 +23°C° 0 mm 1 m/S 734 mmHg 73%
    21:00 +22°C° 0 mm 1 m/S 734 mmHg 74%
    22:00 +22°C° 0 mm 1 m/S 734 mmHg 75%
    23:00 +21°C° 0 mm 1 m/S 734 mmHg 76%

    übermorgen, 20 August, Dienstag

    Zeit Temperatur Niederschläge Wind Luftdruck Luftfeuchtigkeit
    00:00 +20°C° 0 mm 1 m/S 734 mmHg 79%
    01:00 +20°C° 0 mm 1 m/S 735 mmHg 81%
    02:00 +19°C° 0 mm 1 m/S 735 mmHg 84%
    03:00 +19°C° 0 mm 1 m/S 735 mmHg 87%
    04:00 +19°C° 0 mm 1 m/S 735 mmHg 91%
    05:00 +18°C° 0 mm 1 m/S 735 mmHg 95%
    06:00 +20°C° 0 mm 1 m/S 736 mmHg 92%
    07:00 +21°C° 0 mm 1 m/S 736 mmHg 89%
    08:00 +22°C° 0 mm 1 m/S 736 mmHg 86%
    09:00 +24°C° 0 mm 1 m/S 736 mmHg 81%
    10:00 +25°C° 0 mm 1 m/S 736 mmHg 75%
    11:00 +26°C° 0 mm 2 m/S 737 mmHg 70%
    12:00 +27°C° 0.2 mm 2 m/S 736 mmHg 68%
    13:00 +27°C° 0.2 mm 2 m/S 736 mmHg 66%
    14:00 +28°C° 0.2 mm 2 m/S 736 mmHg 65%
    15:00 +28°C° 0.3 mm 2 m/S 736 mmHg 68%
    16:00 +27°C° 0.3 mm 2 m/S 736 mmHg 71%
    17:00 +27°C° 0.3 mm 2 m/S 736 mmHg 75%
    18:00 +25°C° 0.2 mm 2 m/S 736 mmHg 80%
    19:00 +24°C° 0.2 mm 2 m/S 736 mmHg 86%
    20:00 +22°C° 0.2 mm 1 m/S 736 mmHg 91%
    21:00 +22°C° 0 mm 1 m/S 736 mmHg 92%
    22:00 +21°C° 0 mm 1 m/S 736 mmHg 93%
    23:00 +21°C° 0 mm 1 m/S 736 mmHg 93%

    21 August, Mittwoch

    Zeit Temperatur Niederschläge Wind Luftdruck Luftfeuchtigkeit
    00:00 +21°C° 0 mm 1 m/S 736 mmHg 93%
    01:00 +20°C° 0 mm 1 m/S 736 mmHg 93%
    02:00 +20°C° 0 mm 1 m/S 735 mmHg 93%
    03:00 +20°C° 0 mm 1 m/S 735 mmHg 93%
    04:00 +20°C° 0 mm 1 m/S 735 mmHg 92%
    05:00 +19°C° 0 mm 1 m/S 735 mmHg 92%
    06:00 +21°C° 0 mm 1 m/S 735 mmHg 88%
    07:00 +22°C° 0 mm 1 m/S 735 mmHg 84%
    08:00 +24°C° 0 mm 1 m/S 735 mmHg 80%
    09:00 +26°C° 0 mm 1 m/S 735 mmHg 71%
    10:00 +28°C° 0 mm 1 m/S 735 mmHg 61%
    11:00 +31°C° 0 mm 1 m/S 736 mmHg 51%
    12:00 +30°C° 0.3 mm 2 m/S 735 mmHg 58%
    13:00 +29°C° 0.3 mm 4 m/S 735 mmHg 66%
    14:00 +28°C° 0.3 mm 5 m/S 735 mmHg 73%
    15:00 +26°C° 0.4 mm 5 m/S 735 mmHg 75%
    16:00 +25°C° 0.4 mm 5 m/S 735 mmHg 77%
    17:00 +22°C° 0.4 mm 5 m/S 736 mmHg 80%
    18:00 +21°C° 0 mm 5 m/S 736 mmHg 82%
    19:00 +20°C° 0 mm 4 m/S 736 mmHg 84%
    20:00 +18°C° 0 mm 3 m/S 737 mmHg 86%
    21:00 +17°C° 0 mm 3 m/S 737 mmHg 88%
    22:00 +17°C° 0 mm 3 m/S 737 mmHg 90%
    23:00 +16°C° 0 mm 2 m/S 738 mmHg 92%

    22 August, Donnerstag

    Zeit Temperatur Niederschläge Wind Luftdruck Luftfeuchtigkeit
    00:00 +16°C° 0 mm 3 m/S 738 mmHg 91%
    01:00 +16°C° 0 mm 3 m/S 738 mmHg 89%
    02:00 +16°C° 0 mm 3 m/S 738 mmHg 88%
    03:00 +16°C° 0 mm 3 m/S 738 mmHg 88%
    04:00 +15°C° 0 mm 2 m/S 738 mmHg 88%
    05:00 +15°C° 0 mm 2 m/S 738 mmHg 88%
    06:00 +15°C° 0 mm 2 m/S 738 mmHg 88%
    07:00 +15°C° 0 mm 2 m/S 738 mmHg 88%
    08:00 +15°C° 0 mm 2 m/S 738 mmHg 88%
    09:00 +16°C° 0 mm 2 m/S 738 mmHg 85%
    10:00 +16°C° 0 mm 2 m/S 738 mmHg 82%
    11:00 +17°C° 0 mm 3 m/S 739 mmHg 79%
    12:00 +18°C° 0 mm 3 m/S 738 mmHg 77%
    13:00 +18°C° 0 mm 3 m/S 738 mmHg 75%
    14:00 +19°C° 0 mm 3 m/S 738 mmHg 73%
    15:00 +19°C° 0 mm 3 m/S 738 mmHg 73%
    16:00 +19°C° 0 mm 3 m/S 737 mmHg 73%
    17:00 +20°C° 0 mm 3 m/S 737 mmHg 73%
    18:00 +18°C° 0 mm 3 m/S 737 mmHg 78%
    19:00 +17°C° 0 mm 2 m/S 737 mmHg 84%
    20:00 +16°C° 0 mm 2 m/S 737 mmHg 90%
    21:00 +15°C° 0 mm 2 m/S 737 mmHg 91%
    22:00 +15°C° 0 mm 1 m/S 738 mmHg 93%
    23:00 +14°C° 0 mm 1 m/S 738 mmHg 94%

    23 August, Freitag

    Zeit Temperatur Niederschläge Wind Luftdruck Luftfeuchtigkeit
    00:00 +14°C° 0 mm 1 m/S 738 mmHg 95%
    01:00 +14°C° 0 mm 2 m/S 737 mmHg 96%
    02:00 +14°C° 0 mm 2 m/S 737 mmHg 96%
    03:00 +14°C° 0 mm 2 m/S 737 mmHg 97%
    04:00 +13°C° 0 mm 2 m/S 737 mmHg 97%
    05:00 +13°C° 0 mm 2 m/S 737 mmHg 98%
    06:00 +14°C° 0 mm 2 m/S 737 mmHg 95%
    07:00 +14°C° 0 mm 3 m/S 737 mmHg 92%
    08:00 +16°C° 0 mm 3 m/S 738 mmHg 89%
    09:00 +17°C° 0 mm 4 m/S 738 mmHg 84%
    10:00 +18°C° 0 mm 4 m/S 738 mmHg 79%
    11:00 +19°C° 0 mm 4 m/S 738 mmHg 74%
    12:00 +20°C° 0 mm 4 m/S 738 mmHg 72%
    13:00 +21°C° 0 mm 4 m/S 738 mmHg 70%
    14:00 +21°C° 0 mm 3 m/S 738 mmHg 67%
    15:00 +21°C° 0 mm 3 m/S 738 mmHg 68%
    16:00 +21°C° 0 mm 3 m/S 738 mmHg 68%
    17:00 +21°C° 0 mm 3 m/S 738 mmHg 68%
    18:00 +20°C° 0 mm 3 m/S 738 mmHg 72%
    19:00 +19°C° 0 mm 3 m/S 738 mmHg 76%
    20:00 +18°C° 0 mm 2 m/S 738 mmHg 80%
    21:00 +17°C° 0 mm 2 m/S 738 mmHg 82%
    22:00 +16°C° 0 mm 2 m/S 738 mmHg 85%
    23:00 +15°C° 0 mm 2 m/S 739 mmHg 87%
    Mehr zeigen